DELTA 1 DEB, 13532

Orbit data source: Space-Track

DELTA 1 DEB, 13532 is space debris in LEO originally from a launch on Thu, 29 Jul 1976 UTC launched from the Air Force Western Test Range (AFWTR). Debris objects in space refer to the collection of defunct objects orbiting the Earth. Examples of debris include non-operational satellites, rocket bodies, and fragments generated from explosions, collisions, or faulty payload assembly.

Loading next visibility...
Identifier
13532, 1976-077EE
Orbit
LEO
Country
Flag of USUS
Related business
Manufacturer
Unknown
Mission
Spacecraft
Bus & Motor
Unknown
Mass
Unknown
Launch date (UTC)
1976-07-29 (50 years ago)
Launch vehicle
Unknown
Launch site
Air Force Western Test Range (AFWTR)
Object type
Payload
Rocket body
Debris
Shape & HBR
Unknown shape, 0.1 m
Radar Cross Section
Medium (>0.1 m² and <1 m²)

Expand to show TLE details & history
Last TLE update: 19 hours ago

TLE from 19 hours ago
0 DELTA 1 DEB
1 13532U 76077EE  26265.25090825  .00000217  00000-0  30590-2 0  9992
2 13532 102.2639 193.0917 0283697 196.0082 325.6189 11.94112708973232
Epoch: 2026-09-22T06:01Z
TLE epoch observation values (Epoch: 2026-09-22T06:01:18.472Z)
Latitude
19.78654°
Longitude
-73.89113°
Altitude
1,522.225 km
Speed
7.188 km/s
True Right ascension
01h 10m 13s
True Declination
19° 41' 16"
Sunlit
Object was in full shadow at epoch
Visualization orbit readout
Latitude
Unknown
Longitude
Unknown
Altitude
Unknown
Speed
Unknown
Apparent Right ascension
Unknown
Apparent Declination
Unknown
Sunlit
N/A
Visualization observer readout
Local Sidereal Time
18:36:07
Azimuth
Unknown
Elevation
Unknown
Doppler factor
Unknown
Orbital elements
Apogee altitude
1,934.29 km
Perigee altitude
1,475.66 km
Semi-major axis
8,083.112 km
Eccentricity
0.02837
Inclination
102.2639°
RAAN
193.0917°
Arg. of periapsis
196.0082°
True anomaly
323.72818°
Mean anomaly
325.6189°
Eccentric anomaly
324.67913°
Mean motion
2.98659 °/min
Orbital period
120.54 mins
BSTAR
0.003059
Loading maneuver chart data...
Computing Atmospheric mass density...
Loading historical data...
Loading historical data...
Loading historical data...
Loading historical data...
Loading historical data...
Loading historical data...
Loading historical data...

Documentation

Showing up to 5 results
|